Preview of NWS' New Version of Forecast
This preview is not operational and should not be used for support decisions.

Regional Weather Roundup (RWR)

Issued by National Weather Service (NWS)

                            
000
ASUS43 KTOP 241208
RWRKS 

WEATHER ROUNDUP FOR KANSAS
NATIONAL WEATHER SERVICE GOODLAND KS
700 AM CDT SUN MAR 24 2019

NOTE:  "FAIR" INDICATES FEW OR NO CLOUDS BELOW 12,000 FEET WITH NO
SIGNIFICANT WEATHER AND/OR OBSTRUCTIONS TO VISIBILITY.

KSZ001>006-013>018-027>032-041>047-241300-
NORTHWEST KANSAS
  
CITY           SKY/WX    TMP DP  RH WIND       PRES   REMARKS
GOODLAND       CLEAR     34  33  96 NW10      30.01R WCI  26          
6HR MIN TEMP:  34; 6HR MAX TEMP:  40;                                

HAYS           CLEAR     41  39  93 W7        30.00R                  
HILL CITY      PTCLDY    42  39  89 NW8       30.00R                  
6HR MIN TEMP:  40; 6HR MAX TEMP:  43;                                

RUSSELL        CLOUDY    45  43  93 NW16      29.97R                  
6HR MIN TEMP:  40; 6HR MAX TEMP:  45;                                

$$

KSZ061>065-074>080-084>089-241300-
SOUTHWEST KANSAS
  
CITY           SKY/WX    TMP DP  RH WIND       PRES   REMARKS
DODGE CITY     CLEAR     38  34  85 NW13      30.00S WCI  30          
6HR MIN TEMP:  38; 6HR MAX TEMP:  47;                                

ELKHART        CLEAR     40  38  91 W9        30.06R                  
GARDEN CITY    CLEAR     33  32  96 NW7       30.02R                  
6HR MIN TEMP:  32; 6HR MAX TEMP:  45;                                

GREAT BEND     CLEAR     39  37  92 NW10      29.99R WCI  32          
LIBERAL        CLEAR     35  33  92 NW7       30.05R                  
PRATT          CLEAR     40  39  95 W7        30.00S                  
6HR MIN TEMP:  40; 6HR MAX TEMP:  51;                                

$$

KSZ066>073-081>083-090>101-241300-
SOUTHEAST KANSAS
  
CITY           SKY/WX    TMP DP  RH WIND       PRES   REMARKS
CHANUTE        CLOUDY    52  51  97 SW3       29.98R FOG              
6HR MIN TEMP:  50; 6HR MAX TEMP:  52;                                

COFFEYVILLE    CLOUDY    53  51  93 NW5       29.98R                  
6HR MIN TEMP:  50; 6HR MAX TEMP:  53;                                

HUTCHINSON     CLEAR     44  41  89 W8        29.97R                  
6HR MIN TEMP:  44; 6HR MAX TEMP:  52; 6HR PCP:  0.02;                

MEDICINE LODGE   N/A     40  40 100 N3        30.00R                  
NEWTON         CLEAR     44  41  89 W8        29.98R                  
PARSONS        CLOUDY    52  51  97 CALM      29.99R                  
6HR MIN TEMP:  50; 6HR MAX TEMP:  53;                                

WICHITA INTL   CLEAR     46  43  89 W5        29.98R                  
6HR MIN TEMP:  44; 6HR MAX TEMP:  52;                                

WICHITA JABRA  CLEAR     46  44  93 W6        29.98R                  
6HR MIN TEMP:  46; 6HR MAX TEMP:  52;                                

WICHITA MCCONL CLEAR     48  48 100 SW3       29.98R                  
WINFIELD       FOG       51  50  96 W3        29.99R VSB 3/4          
6HR MIN TEMP:  50; 6HR MAX TEMP:  51;                                

$$

KSZ007>012-019>026-033>040-048>060-102>105-241300-
NORTHEAST KANSAS
  
CITY           SKY/WX    TMP DP  RH WIND       PRES   REMARKS
CONCORDIA      CLOUDY    46  44  93 W10       29.91R                  
6HR MIN TEMP:  45; 6HR MAX TEMP:  47;                                

EMPORIA        CLEAR     47  47 100 SW8       29.95S FOG              
6HR MIN TEMP:  47; 6HR MAX TEMP:  50; 6HR PCP:  0.06;                

LAWRENCE       CLOUDY    49  46  90 S6        29.94S                  
6HR MIN TEMP:  49; 6HR MAX TEMP:  50; 6HR PCP:  0.16;                

MANHATTAN      CLOUDY    48  41  76 SW12      29.93R                  
6HR MIN TEMP:  47; 6HR MAX TEMP:  54; 6HR PCP: TRACE;                

MARYSVILLE     CLOUDY    45  43  93 SW6       29.89S                  
OLATHE IND     CLOUDY    49  48  97 S6        29.96R                  
6HR MIN TEMP:  48; 6HR MAX TEMP:  49; 6HR PCP: TRACE;                

OLATHE EXE     CLOUDY    48  47  96 S6        29.95R                  
6HR MIN TEMP:  46; 6HR MAX TEMP:  49;                                

SALINA         CLOUDY    47  41  80 W13       29.96R                  
6HR MIN TEMP:  43; 6HR MAX TEMP:  52;                                

TOPEKA BILLARD CLOUDY    50  48  93 S8        29.93R                  
6HR MIN TEMP:  49; 6HR MAX TEMP:  52; 6HR PCP:  0.12;                

TOPEKA FORBES  CLOUDY    50  48  93 SW10      29.93R                  
6HR MIN TEMP:  48; 6HR MAX TEMP:  51; 6HR PCP:  0.09;                

$$